« Back
NWS Peachtree City, Ga » Text Product » GA Regional Weather Roundup


Printer-friendly Version
Current Version              Previous Versions:   1  2  3  4  5  6  7  8  9  

Regional Weather Roundup

869
ASUS42 KFFC 270603
RWRGA
WEATHER ROUNDUP FOR GEORGIA
NATIONAL WEATHER SERVICE PEACHTREE CITY GA
200 AM EDT MON APR 27 2015

NOTE: "FAIR" INDICATES FEW OR NO CLOUDS BELOW 12,000 FEET WITH NO
SIGNIFICANT WEATHER AND/OR OBSTRUCTIONS TO VISIBILITY.

* = USE WITH CAUTION. THE STATIONS MARKED WITH AN ASTERISK MAY NOT
REPORT WEATHER SUCH AS PRECIPITATION, FOG, OR THUNDER AND ARE NOT
QUALITY CONTROLLED BY NWS.

THE REMARK "TC" DENOTES TEMPERATURE READING IN DEGREES CELSIUS.

GAZ001>058-270700-
NORTH GEORGIA

CITY           SKY/WX    TMP DP  RH WIND       PRES   REMARKS
ATLANTA        PTCLDY    56  48  74 N10       29.79F
6HR MIN TEMP:  56; 6HR MAX TEMP:  76;

ATHENS         CLOUDY    58  54  86 E6        29.79S
6HR MIN TEMP:  57; 6HR MAX TEMP:  75;

CHAMBLEE       CLEAR     53  49  86 NW9       29.79F
6HR MIN TEMP:  53; 6HR MAX TEMP:  72;

PEACHTREE CITY CLEAR     58  50  75 N9        29.80F
6HR MIN TEMP:  58; 6HR MAX TEMP:  77;

ROME           CLEAR     53  46  77 N7        29.83F
6HR MIN TEMP:  53; 6HR MAX TEMP:  66;

WEST ATLANTA   CLEAR     55  48  77 CALM      29.80F
6HR MIN TEMP:  55; 6HR MAX TEMP:  75;

GAINESVILLE    CLEAR     56  49  77 N5        29.81S
6HR MIN TEMP:  56; 6HR MAX TEMP:  70;

CARTERSVILLE   CLEAR     51  46  83 CALM      29.83F
6HR MIN TEMP:  51; 6HR MAX TEMP:  68;



CITY           SKY/WX    TMP DP  RH WIND       PRES   REMARKS
DALTON*        CLEAR     50  48  93 NW3       29.84S
MARIETTA       CLEAR     53  49  85 NW7       29.80F
BLAIRSVILLE*     N/A     52  31  44 NW3       29.83F
$$

GAZ059>098-102>109-270700-
CENTRAL GEORGIA

CITY           SKY/WX    TMP DP  RH WIND       PRES   REMARKS
AUGUSTA-BUSH   LGT RAIN  57  50  77 NE10      29.78R
6HR MIN TEMP:  57; 6HR MAX TEMP:  78; 6HR PCP:  0.01;

AUGUSTA-DANIEL CLOUDY    59  48  67 NE13      29.78S
6HR MIN TEMP:  59; 6HR MAX TEMP:  81;

COLUMBUS       MOCLDY    66  56  70 NE5       29.76R
6HR MIN TEMP:  66; 6HR MAX TEMP:  80;

MACON          PTCLDY    65  55  70 N7        29.76S
6HR MIN TEMP:  65; 6HR MAX TEMP:  77;

ROBINS AFB     PTCLDY    67  56  69 N7        29.75S


CITY           SKY/WX    TMP DP  RH WIND       PRES   REMARKS
LAGRANGE*      MOCLDY    64  57  77 N3        29.79S
SYLVANIA*      CLOUDY    60  57  91 NE6       29.75S
MILLEDGEVILLE* PTCLDY    63  61  94 NE5       29.77R
$$

GAZ099>101-110>166-270700-
SOUTH GEORGIA

CITY           SKY/WX    TMP DP  RH WIND       PRES   REMARKS
SAVANNAH       MOCLDY    65  59  81 NE12      29.72R
6HR MIN TEMP:  65; 6HR MAX TEMP:  78;

VALDOSTA       MOCLDY    71  68  90 CALM      29.71F
6HR MIN TEMP:  71; 6HR MAX TEMP:  79;

ALMA           MOCLDY    71  63  75 SW3       29.69F
6HR MIN TEMP:  71; 6HR MAX TEMP:  80;

ST SIMONS      MOCLDY    74  67  78 W6        29.68S
6HR MIN TEMP:  74; 6HR MAX TEMP:  83;

ALBANY         CLOUDY    70  65  84 W5        29.74S
BRUNSWICK      MOCLDY    73  64  73 W8        29.69S


CITY           SKY/WX    TMP DP  RH WIND       PRES   REMARKS
BAINBRIDGE*    PTCLDY    73  72  94 W3        29.73S
MOULTRIE*      CLOUDY    72  70  94 CALM      29.73S
VIDALIA*       MOCLDY    70  61  73 N7        29.71R
WAYCROSS*      MOCLDY    76  72  86 W6        29.69F
DOUGLAS*       PTCLDY    72  64  78 CALM      29.71F
$$



USA.gov is the U.S. government's official web portal to all federal, state and local government web resources and services.